CZ-6A DEB, 61811

Orbit data source: Space-Track

CZ-6A DEB, 61811 is space debris in LEO originally from a launch on Tue, 06 Aug 2024 UTC launched from the Taiyaun Space Center, China (TSC). Debris objects in space refer to the collection of defunct objects orbiting the Earth. Examples of debris include non-operational satellites, rocket bodies, and fragments generated from explosions, collisions, or faulty payload assembly.

Loading next visibility...
Identifier
61811, 2024-140ACB
Orbit
LEO
Country
Flag of CNCN / PRC
Related business
Manufacturer
SAST
Mission
Spacecraft
Bus & Motor
Unknown
Mass
Unknown
Launch date (UTC)
2024-08-06 (2 years ago)
Launch vehicle
Unknown
Launch site
Taiyaun Space Center, China (TSC)
Object type
Payload
Rocket body
Debris
Shape & HBR
Unknown shape, 0.1 m
Radar Cross Section
Small (<0.1 m²)

Expand to show TLE details & history
Last TLE update: 14 hours ago

TLE from 14 hours ago
0 CZ-6A DEB
1 61811U 24140ACB 26171.24954615  .00002254  00000-0  12021-2 0  9992
2 61811  89.0407 278.9509 0099149 211.7842 147.7336 14.10537294 91685
Epoch: 2026-06-20T05:59Z
TLE epoch observation values (Epoch: 2026-06-20T05:59:20.787Z)
Latitude
0.00003°
Longitude
-79.35259°
Altitude
921.449 km
Speed
7.36 km/s
True Right ascension
18h 35m 48s
True Declination
0° 00' 00"
Sunlit
Object was in full shadow at epoch
Visualization orbit readout
Latitude
Unknown
Longitude
Unknown
Altitude
Unknown
Speed
Unknown
Apparent Right ascension
Unknown
Apparent Declination
Unknown
Sunlit
N/A
Visualization observer readout
Local Sidereal Time
07:21:53
Azimuth
Unknown
Elevation
Unknown
Doppler factor
Unknown
Orbital elements
Apogee altitude
926.209 km
Perigee altitude
782.787 km
Semi-major axis
7,232.635 km
Eccentricity
0.00991
Inclination
89.0407°
RAAN
278.9509°
Arg. of periapsis
211.7842°
True anomaly
148.33384°
Mean anomaly
147.7336°
Eccentric anomaly
148.03435°
Mean motion
3.52857 °/min
Orbital period
102.02 mins
BSTAR
0.0012021
Loading maneuver chart data...
Computing Atmospheric mass density...
Loading historical data...
Loading historical data...
Loading historical data...
Loading historical data...
Loading historical data...
Loading historical data...
Loading historical data...

Documentation

Showing up to 5 results
|